Salinas, CA

10:01 AM PDT on March 28, 2017 (GMT -0700)
Salinas Municipal

Weather History for KSNS - November, 2013

Change the Weather History Date:

Wednesday, November 13, 2013

  Actual Average Record
Temperature  
Mean Temperature 60 °F 56 °F  
Max Temperature 75 °F 67 °F 91 °F (1933)
Min Temperature 45 °F 45 °F 26 °F (1938)
Degree Days  
Heating Degree Days 5 9  
Month to date heating degree days 86 100  
Since 1 July heating degree days 373 434  
Cooling Degree Days 0 0  
Month to date cooling degree days 0 0  
Year to date cooling degree days 155 127  
Growing Degree Days 9 (Base 50)    
Moisture  
Dew Point 49 °F    
Average Humidity 66    
Maximum Humidity 93    
Minimum Humidity 38    
Precipitation  
Precipitation 0.00 in 0.04 in 1.00 in (1955)
Month to date precipitation 0.00 0.49  
Year to date precipitation 2.59 9.99  
Since 1 July precipitation 0.26  
Sea Level Pressure  
Sea Level Pressure 30.18 in    
Wind  
Wind Speed 6 mph (WNW)    
Max Wind Speed 17 mph    
Max Gust Speed 20 mph    
Visibility 7 miles    
Events Fog    
T = Trace of Precipitation, MM = Missing Value Source: NWS Daily Summary

Daily Weather History Graph

Daily Weather History Graph

Search for Another Location

Airport or City:

Trip Planner

Search our weather history database for the weather conditions in past years. The results will help you decide how hot, cold, wet, or windy it might be!

Date:

Astronomy

Nov. 13, 2013 Rise Set
Actual Time 6:42 AM PST 4:58 PM PST
Civil Twilight 6:15 AM PST 5:26 PM PST
Nautical Twilight 5:43 AM PST 5:57 PM PST
Astronomical Twilight 5:13 AM PST 6:27 PM PST
Moon 2:43 PM PST (11/13) 2:47 AM PST (11/13)
Length of Visible Light 11h 10m
Length of Day
10h 16m
Waxing Gibbous, 85% of the Moon is Illuminated
Nov 13
Waxing Gibbous
Nov 17
Full
Nov 25
Last Quarter
Dec 2
New
Dec 9
First Quarter

Hourly Weather History & Observations

Time (PST) Temp. Windchill Dew Point Humidity Pressure Visibility Wind Dir Wind Speed Gust Speed Precip Events Conditions
12:53 AM 48.9 °F - 45.0 °F 86% 30.27 in 10.0 mi Calm Calm - N/A   Clear
1:53 AM 48.0 °F - 44.1 °F 86% 30.27 in 10.0 mi Calm Calm - N/A   Clear
2:53 AM 46.9 °F - 43.0 °F 86% 30.25 in 7.0 mi SE 3.5 mph - N/A   Clear
3:53 AM 46.9 °F - 44.1 °F 90% 30.24 in 9.0 mi Calm Calm - N/A   Clear
4:53 AM 45.0 °F 43.5 °F 41.0 °F 86% 30.24 in 8.0 mi East 3.5 mph - N/A   Clear
5:53 AM 46.9 °F - 43.0 °F 86% 30.23 in 10.0 mi Calm Calm - N/A   Clear
6:53 AM 45.0 °F 41.8 °F 41.0 °F 86% 30.23 in 10.0 mi ESE 5.8 mph - N/A   Clear
7:53 AM 48.0 °F - 42.1 °F 80% 30.25 in 10.0 mi ESE 4.6 mph - N/A   Clear
8:53 AM 55.0 °F - 44.1 °F 67% 30.25 in 10.0 mi ESE 4.6 mph - N/A   Clear
9:53 AM 61.0 °F - 46.0 °F 58% 30.25 in 10.0 mi SSE 3.5 mph - N/A   Clear
10:53 AM 66.0 °F - 46.9 °F 50% 30.23 in 10.0 mi Calm Calm - N/A   Clear
11:53 AM 73.9 °F - 46.9 °F 38% 30.18 in 10.0 mi WSW 4.6 mph - N/A   Clear
12:53 PM 66.9 °F - 52.0 °F 59% 30.16 in 10.0 mi West 12.7 mph - N/A   Clear
1:53 PM 66.0 °F - 52.0 °F 60% 30.15 in 10.0 mi West 12.7 mph - N/A   Clear
2:53 PM 61.0 °F - 52.0 °F 72% 30.15 in 10.0 mi West 12.7 mph - N/A   Clear
3:53 PM 60.1 °F - 53.1 °F 78% 30.15 in 10.0 mi WNW 10.4 mph - N/A   Clear
4:53 PM 57.0 °F - 52.0 °F 83% 30.14 in 10.0 mi NW 10.4 mph - N/A   Clear
5:53 PM 55.9 °F - 52.0 °F 87% 30.15 in 10.0 mi WNW 11.5 mph - N/A   Partly Cloudy
6:07 PM 55.4 °F - 51.8 °F 88% 30.12 in 10.0 mi WNW 9.2 mph - N/A   Mostly Cloudy
6:46 PM 55.4 °F - 51.8 °F 88% 30.13 in 8.0 mi WNW 11.5 mph - N/A   Partly Cloudy
6:53 PM 55.9 °F - 52.0 °F 87% 30.16 in 8.0 mi WNW 9.2 mph - N/A   Scattered Clouds
7:02 PM 55.4 °F - 51.8 °F 88% 30.13 in 9.0 mi WNW 10.4 mph - N/A   Mostly Cloudy
7:53 PM 55.0 °F - 52.0 °F 89% 30.16 in 9.0 mi NW 6.9 mph - N/A   Overcast
8:43 PM 55.4 °F - 51.8 °F 88% 30.12 in 6.0 mi NW 5.8 mph - N/A   Overcast
8:53 PM 54.0 °F - 52.0 °F 93% 30.15 in 6.0 mi NW 8.1 mph - N/A   Overcast
9:06 PM 53.6 °F - 51.8 °F 94% 30.12 in 1.8 mi NNW 6.9 mph - N/A   Overcast
9:39 PM 53.6 °F - 51.8 °F 94% 30.12 in 0.8 mi WNW 8.1 mph - N/A   Overcast
9:53 PM 53.1 °F - 52.0 °F 96% 30.14 in 0.8 mi WNW 4.6 mph - N/A   Mist
10:53 PM 53.1 °F - 51.1 °F 93% 30.16 in 0.5 mi WNW 6.9 mph - N/A Fog Fog
11:13 PM 53.6 °F - 51.8 °F 94% 30.13 in 1.5 mi West 4.6 mph - N/A   Overcast
11:44 PM 53.6 °F - 51.8 °F 94% 30.14 in 0.8 mi WNW 4.6 mph - N/A   Overcast
11:53 PM 53.1 °F - 52.0 °F 96% 30.16 in 1.0 mi West 3.5 mph - N/A   Overcast